GFSGBSN_2pvu_pres_129.txt.gz
Presure
170 169 168 125 167 167 166 174 174 153 165 169 179 184 165 188 185 187 209 214 206 194 198 180 194 189 140 209 170 197 166 142 187 196 196 202 195 195 196 200 200 203 201 146 215 206 197
118 165 172 105 154 175 161 169 169 165 150 171 179 199 149 141 198 163 195 230 216 200 148 175 172 217 227 208 187 159 183 180 192 185 195 190 198 196 195 198 198 196 190 189 193 199 199
128 178 170 172 185 169 179 158 170 175 174 172 191 183 185 192 132 129 194 216 218 210 219 215 195 209 198 221 202 173 197 142 183 181 185 182 185 189 183 190 190 187 186 186 194 195 197
169 162 166 171 173 177 189 190 191 186 172 194 182 194 195 182 185 184 181 188 207 202 213 203 145 206 193 208 197 181 189 191 191 189 179 178 176 169 189 186 189 191 189 186 160 188 188
172 184 183 172 170 138 191 176 173 170 171 134 204 194 183 175 193 183 188 183 193 202 203 216 203 185 198 196 180 177 175 151 174 187 174 184 191 189 162 166 179 173 189 192 199 195 187
190 206 180 170 179 196 203 205 184 184 184 185 177 190 170 195 169 206 189 195 217 189 207 217 208 206 176 199 201 192 201 192 179 194 175 173 182 166 170 164 173 168 176 184 197 199 215
219 193 158 182 207 185 204 192 208 195 193 192 192 179 169 162 182 188 199 222 181 188 188 216 227 209 220 203 211 171 175 177 143 189 187 197 201 192 202 211 205 204 184 187 196 119 211
187 154 226 170 179 210 148 199 164 165 195 200 185 183 200 198 169 201 187 185 176 198 208 213 237 214 192 212 218 199 189 176 204 204 195 183 190 163 181 180 193 196 196 196 195 142 178
174 190 157 195 190 205 218 214 181 166 206 182 176 185 208 181 211 198 189 203 208 219 214 199 234 235 210 199 219 190 202 180 204 162 183 196 199 207 203 194 190 200 195 179 221 222 217
222 219 193 199 186 213 219 192 184 198 186 199 201 191 213 206 214 197 206 189 196 202 213 218 230 232 214 229 207 227 195 204 196 209 182 199 204 184 200 198 199 212 207 222 208 214 224
226 231 203 224 215 202 173 228 192 197 180 194 183 207 210 190 213 207 214 214 211 208 220 213 236 237 228 208 210 235 196 198 190 196 136 175 208 211 179 201 196 217 203 198 218 250 247
225 224 228 223 200 227 193 205 207 225 200 222 226 218 212 215 209 224 220 216 211 221 221 241 243 243 192 211 212 218 212 216 215 183 199 199 198 196 210 180 219 179 208 210 227 232 261
232 257 228 252 241 247 236 251 226 231 223 229 228 239 250 244 248 232 226 232 240 251 243 249 246 236 228 210 194 210 205 199 226 193 195 181 203 204 212 181 206 199 209 220 243 256 273
242 264 261 257 253 260 254 249 259 170 252 253 248 251 241 237 268 249 258 253 258 265 254 253 242 239 240 226 216 191 207 217 218 195 161 219 199 211 200 207 192 205 220 250 235 263 268
295 299 290 366 295 303 234 370 363 344 330 319 282 336 329 257 310 277 281 269 270 271 265 258 258 244 252 234 225 191 224 221 213 232 208 225 217 190 204 211 198 260 258 249 257 260 270
323 304 355 354 330 326 329 346 340 342 347 324 287 320 314 184 321 326 321 310 335 305 312 301 267 254 241 238 232 212 220 226 183 176 211 211 210 217 220 202 229 257 242 251 249 263 269
362 340 341 335 315 333 346 347 352 349 332 329 303 290 294 304 311 312 316 323 304 300 308 338 339 297 261 255 240 216 225 224 221 226 202 225 230 238 203 208 251 241 245 242 258 257 361
368 357 338 316 309 317 336 331 333 342 309 310 316 318 328 334 307 314 322 303 297 312 323 302 291 285 285 248 238 237 233 227 232 150 228 230 228 212 208 253 238 247 245 255 276 350 331
365 335 321 327 339 294 282 282 290 300 324 325 324 319 307 299 301 310 297 299 324 331 287 270 267 253 262 278 269 259 236 245 234 232 221 228 235 219 251 240 243 240 244 254 260 354 305
349 322 298 307 274 270 268 272 291 297 281 337 337 336 337 336 299 279 268 265 281 286 291 280 269 258 255 248 248 245 242 248 244 228 236 232 228 244 243 239 236 239 253 265 311 312 285
336 313 293 274 263 260 268 276 294 304 337 325 314 353 288 265 263 263 262 247 253 254 249 250 257 260 249 248 241 245 246 243 243 233 220 244 238 239 230 227 232 251 254 323 305 296 279
319 281 266 261 261 252 258 240 253 255 269 274 265 261 266 267 253 257 253 241 241 252 247 245 238 239 240 239 239 238 232 220 251 244 233 239 231 228 222 220 238 243 247 300 288 280 272
294 304 263 259 259 250 242 263 243 233 250 251 262 260 257 253 245 243 243 240 231 243 242 246 243 240 241 254 242 241 243 240 230 225 235 228 224 223 215 221 234 254 346 287 277 278 269
288 290 252 259 253 244 246 238 269 230 224 239 247 236 251 243 237 235 232 238 242 242 247 234 243 236 241 236 234 230 232 225 225 231 223 220 222 218 213 223 240 242 324 286 273 270 263
258 269 252 256 244 249 242 238 234 244 259 254 241 243 236 231 256 245 239 233 228 228 239 239 238 238 237 230 228 224 232 219 223 218 220 219 222 216 224 221 242 288 316 295 280 265 276
257 260 254 249 242 240 237 236 234 239 241 226 254 241 221 229 236 238 242 242 237 235 237 232 233 226 231 221 227 226 221 223 220 216 217 221 216 226 234 241 239 294 317 295 276 268 257
298 259 250 244 241 248 236 248 228 244 230 240 249 237 241 240 212 238 237 231 233 240 240 232 230 227 229 234 215 213 223 219 215 213 217 217 221 232 232 237 255 291 281 300 282 269 259
304 258 244 241 243 242 265 239 228 244 227 240 237 249 232 236 240 236 233 231 232 234 239 242 236 231 230 220 227 221 215 215 216 215 216 214 226 225 239 236 262 288 283 315 276 285 260
292 273 246 244 239 240 237 252 234 226 218 252 249 237 240 230 215 227 227 231 235 229 234 220 218 229 226 221 225 218 216 216 209 218 217 218 229 235 233 251 297 284 283 313 297 274 266

GFSGBSN_2pvu_pres_132.txt.gz
Presure
150 179 170 154 159 153 161 148 172 167 169 170 169 169 170 144 169 169 166 174 157 181 197 204 174 206 211 229 221 194 188 222 209 199 161 193 203 160 163 184 202 200 197 204 206 203 193
180 167 154 147 175 146 169 152 170 163 174 113 132 175 173 171 179 166 183 184 171 170 192 201 169 193 199 205 214 219 194 185 202 192 173 186 182 195 179 187 186 194 198 196 192 195 195
187 176 179 168 181 179 172 175 162 177 162 174 164 167 178 169 164 172 129 175 136 184 193 200 123 160 189 199 203 206 216 212 213 182 195 177 177 190 192 193 198 190 199 194 196 195 197
165 143 181 174 183 175 183 162 171 169 175 176 177 180 170 173 184 183 169 187 189 185 199 126 143 195 214 185 199 200 127 193 208 193 187 130 195 180 185 171 181 177 183 187 190 162 196
156 177 190 184 185 171 184 125 150 155 186 173 177 182 168 170 193 198 202 187 173 188 186 197 178 198 213 208 205 200 130 201 202 192 194 185 187 193 177 178 185 187 181 183 175 174 161
178 179 194 190 172 181 191 168 174 177 179 185 188 138 180 176 171 192 184 182 187 184 192 170 163 191 199 188 194 194 198 227 200 181 203 197 172 187 182 190 138 192 186 177 189 183 181
173 198 184 180 183 213 185 181 169 197 186 195 167 196 203 168 179 180 163 187 189 182 187 164 193 197 196 207 191 195 207 230 214 196 198 203 197 180 196 186 179 179 178 175 186 179 179
201 180 174 200 169 149 163 188 150 169 197 195 170 160 207 209 172 134 190 163 202 187 194 198 173 196 209 194 176 220 215 212 224 227 261 203 190 186 171 193 186 190 198 198 194 201 146
174 183 196 172 143 162 162 204 188 182 159 188 147 193 206 209 198 200 152 201 197 198 161 202 199 180 201 217 194 211 198 210 223 222 124 208 223 193 208 193 184 198 202 200 184 195 199
191 204 206 192 201 180 178 209 180 192 145 205 198 176 169 210 210 185 215 203 200 189 193 202 181 185 212 208 188 197 203 210 212 214 214 236 214 238 205 189 184 150 214 196 185 193 211
214 203 171 168 220 227 178 147 239 227 217 182 197 223 216 154 186 222 213 216 203 196 209 185 199 208 197 189 211 211 215 211 211 218 236 238 225 208 234 220 202 208 207 192 180 178 194
225 184 224 224 233 241 232 192 191 226 217 222 209 210 190 213 202 203 217 204 199 205 213 220 213 222 207 209 206 217 214 205 222 226 233 178 195 202 234 196 225 191 193 206 206 207 208
231 231 190 231 233 240 227 246 238 212 227 232 208 194 219 216 219 203 210 229 205 216 218 218 214 216 230 219 241 227 223 216 218 229 228 231 170 192 202 185 230 218 207 199 203 191 188
258 262 255 237 244 263 242 249 251 244 239 234 229 225 223 220 231 229 223 231 226 236 231 227 226 225 229 232 236 255 243 230 237 240 231 233 231 217 206 212 192 201 215 208 236 200 239
241 246 250 255 247 253 258 255 247 254 249 249 257 248 245 245 246 238 243 255 255 246 248 234 244 242 249 239 247 236 253 237 242 239 232 227 185 218 221 219 203 232 210 236 229 246 238
262 258 268 282 290 291 297 326 333 339 302 292 282 264 274 287 261 263 257 332 283 252 260 264 266 270 270 260 256 254 254 251 207 240 234 229 179 213 225 222 225 191 234 225 199 237 205
273 281 301 315 323 323 349 362 347 354 310 319 324 322 349 347 340 328 326 318 309 301 311 315 319 308 292 289 282 269 261 256 256 229 233 226 231 196 220 226 145 220 188 217 233 244 248
294 303 305 319 352 377 357 352 350 346 333 328 318 313 326 326 324 327 327 322 328 319 326 316 312 310 308 340 338 340 260 258 186 247 220 230 214 141 228 227 183 220 229 236 241 250 253
306 306 312 330 373 360 364 355 322 318 319 326 348 332 317 309 317 308 294 286 278 286 282 281 279 283 278 285 304 288 270 267 266 230 232 183 236 229 211 181 230 233 237 238 242 253 244
314 320 324 348 358 352 334 312 286 285 317 325 311 315 333 346 291 316 304 316 316 320 316 302 297 310 285 283 282 282 306 265 256 239 237 254 239 234 234 228 241 235 236 248 246 239 248
311 313 332 361 362 319 318 310 281 280 282 269 265 296 312 302 313 296 285 292 294 294 295 312 331 278 271 259 263 267 254 258 244 242 247 239 241 238 228 240 231 238 243 238 232 238 245
320 329 352 369 297 288 270 262 268 270 286 278 279 312 325 325 304 330 282 274 261 266 279 260 267 260 251 247 238 241 252 239 238 241 248 239 235 237 237 231 237 237 232 232 228 235 252
337 341 366 333 301 262 254 259 257 265 284 326 329 330 334 310 277 273 264 263 248 254 252 243 245 263 242 243 238 240 226 235 222 228 230 232 234 221 236 229 224 226 229 225 227 230 277
375 378 367 290 263 260 253 256 267 315 271 308 320 279 274 265 262 254 259 235 254 242 239 240 233 230 231 225 228 231 238 237 232 233 228 225 234 231 221 226 220 224 226 220 239 247 308
360 354 333 280 257 253 253 263 284 247 245 272 269 258 256 242 261 251 253 244 242 244 238 246 236 238 236 239 235 227 224 226 228 231 231 225 219 223 222 219 223 219 219 221 238 244 306
351 349 278 260 254 252 248 268 238 253 240 251 266 253 254 251 253 253 244 244 241 234 246 245 244 246 244 246 237 244 241 229 230 220 221 220 222 219 205 221 220 220 217 229 243 249 315
328 280 281 252 253 249 250 249 249 241 238 253 217 246 247 240 233 231 237 236 232 231 231 248 235 233 232 235 231 228 225 223 215 218 223 222 211 213 215 224 224 217 225 233 236 287 301
305 283 264 252 251 247 255 237 243 237 242 248 237 240 244 239 237 238 232 233 229 230 228 230 230 232 232 231 232 223 218 224 217 222 215 205 220 206 218 222 214 222 227 244 234 300 285
270 278 253 254 248 249 250 242 244 237 226 219 247 250 250 230 222 226 227 237 238 234 234 234 231 236 232 231 228 226 230 220 220 211 209 220 211 219 220 222 223 221 241 243 277 295 288

GFSGBSN_2pvu_pres_135.txt.gz
Presure
175 175 172 176 174 174 165 179 174 185 180 170 167 176 161 151 173 171 173 175 178 174 181 170 178 191 187 188 182 163 206 184 196 195 217 195 195 200 198 133 200 170 199 185 181 155 205
188 195 178 173 180 165 172 169 153 181 173 168 171 164 170 163 163 166 170 163 176 172 181 171 188 174 174 186 191 195 176 192 184 189 203 201 189 206 194 195 187 200 201 207 209 186 196
173 170 179 182 187 192 184 173 181 188 182 166 165 164 178 172 173 167 174 175 173 174 172 173 183 182 181 185 171 201 197 167 193 222 185 208 172 203 203 172 189 198 195 187 188 190 195
190 201 177 179 156 181 188 181 189 183 165 161 156 175 182 181 143 174 187 175 180 183 188 183 179 182 198 201 199 189 125 202 187 201 181 206 169 207 149 188 186 187 175 181 188 189 188
190 193 166 161 191 145 162 181 166 180 156 172 150 162 186 158 149 129 183 180 184 185 185 177 179 188 192 194 194 187 173 189 208 192 183 191 205 189 203 198 191 191 159 181 178 183 187
164 170 124 199 198 162 204 194 199 179 174 183 184 171 183 184 165 133 186 182 195 158 203 183 204 186 195 194 200 195 180 178 197 193 201 199 187 208 201 188 186 188 192 187 175 178 184
132 155 164 185 171 197 178 172 193 173 182 184 186 189 145 195 172 178 196 168 181 157 167 208 173 206 186 201 197 195 173 162 199 198 206 183 203 185 233 201 188 196 195 187 180 189 198
202 191 191 193 185 206 168 178 209 188 185 177 154 194 178 184 201 192 188 192 159 202 196 197 192 196 196 186 199 198 171 191 208 207 201 176 214 180 201 226 202 193 198 194 189 190 187
202 183 186 194 201 181 178 183 173 203 181 167 191 195 201 157 180 201 192 158 182 189 182 192 198 222 160 209 206 197 181 195 170 182 194 205 182 191 201 219 219 220 221 203 186 159 192
164 160 177 196 193 191 184 179 169 183 171 203 178 187 178 189 153 182 187 181 197 158 190 205 206 199 211 202 213 211 164 201 183 164 201 209 185 172 212 207 208 219 228 246 230 241 212
178 160 189 195 160 173 196 195 161 186 169 210 177 176 199 195 202 173 153 180 174 190 192 232 185 197 198 192 200 217 210 206 200 203 196 194 188 207 210 213 213 220 216 234 231 219 222
206 204 207 200 210 186 206 172 207 174 193 198 190 203 203 188 185 200 201 187 186 172 232 233 216 212 214 191 200 218 216 215 200 202 206 211 207 214 221 214 235 226 224 221 226 224 212
214 209 214 213 209 212 208 211 210 207 206 216 203 222 219 221 196 227 231 231 240 191 236 228 217 204 224 207 206 211 205 208 213 201 204 218 215 219 212 230 234 236 231 234 236 243 201
214 213 211 213 214 221 222 226 228 227 225 222 203 245 230 221 228 226 234 231 234 237 238 223 218 220 201 210 223 214 208 221 221 211 213 218 213 215 237 242 226 235 231 232 227 238 196
219 221 228 247 232 249 240 240 241 241 241 259 248 254 243 240 226 239 241 227 249 251 248 236 237 233 239 230 232 229 235 232 234 231 234 254 231 237 231 243 240 236 237 228 235 228 226
249 262 254 247 248 247 248 250 254 237 257 255 261 259 250 260 264 210 257 261 278 187 250 256 254 247 250 257 248 246 251 255 247 252 251 250 236 241 256 241 237 228 229 228 197 205 211
256 263 256 262 254 254 260 265 254 260 255 279 273 274 278 277 334 347 354 357 336 318 301 284 289 256 257 249 298 286 295 282 275 273 256 262 271 183 258 247 233 233 231 229 236 178 246
252 249 247 252 250 252 258 253 255 256 269 297 343 367 360 357 339 332 341 353 328 305 314 320 321 322 331 315 307 321 323 324 320 314 287 269 264 262 259 244 229 232 223 232 204 223 231
256 258 258 251 264 274 291 293 308 321 326 340 366 359 365 350 360 328 336 332 326 324 319 316 319 312 307 326 321 312 308 303 342 297 252 252 275 259 234 231 254 240 238 231 220 230 234
274 282 283 285 270 286 275 302 310 325 359 363 375 365 359 340 324 338 321 310 299 307 304 307 300 279 272 273 292 275 277 278 304 298 291 273 265 255 260 241 234 231 202 232 231 233 232
288 292 285 290 293 286 293 321 330 343 374 359 321 302 296 292 285 297 303 290 316 313 298 296 288 288 295 278 281 299 301 297 286 265 247 251 239 239 236 231 230 217 242 236 237 238 238
282 285 284 285 289 304 308 332 339 368 316 298 279 285 277 275 273 284 312 311 314 296 281 285 292 296 313 304 285 273 305 272 254 250 259 247 243 245 241 232 245 230 233 238 239 228 234
286 287 290 295 296 308 332 331 378 329 283 280 269 274 256 272 273 278 301 309 283 277 278 286 293 303 302 277 264 261 255 257 275 242 252 237 234 226 229 234 238 238 235 230 228 225 227
303 297 296 298 311 335 338 365 328 283 283 273 276 265 270 270 268 289 305 291 282 279 275 288 278 269 254 253 250 243 249 243 226 240 233 230 228 235 238 235 227 228 232 221 219 224 220
318 317 313 330 329 331 361 300 280 275 270 277 270 263 266 276 324 301 273 264 258 266 255 257 252 246 236 242 242 236 229 231 244 237 228 232 236 234 225 227 230 220 215 220 218 217 232
337 331 331 334 348 386 286 265 268 267 265 267 273 274 347 307 264 259 260 246 258 245 262 239 247 251 247 234 234 232 232 233 226 237 230 231 226 223 234 226 210 218 219 218 213 222 234
342 354 385 383 372 344 265 265 264 258 249 285 277 319 271 260 256 256 248 257 250 255 246 243 243 240 245 245 239 231 241 236 233 228 225 229 227 226 221 214 217 217 216 209 214 232 223
370 374 364 356 367 265 265 263 252 259 241 296 279 266 262 255 251 257 247 239 257 243 245 251 247 241 240 234 233 233 232 227 232 232 229 226 217 215 217 219 221 210 215 218 225 220 230
352 346 346 353 269 264 256 256 270 241 238 259 261 249 258 252 262 248 252 241 240 236 236 239 241 256 247 250 247 243 237 241 231 222 223 220 214 220 218 215 219 219 218 225 233 235 231

GFSGBSN_2pvu_pres_141.txt.gz
Presure
194 179 172 165 166 182 171 151 178 183 197 201 169 185 174 173 133 184 184 151 166 171 184 164 173 185 177 151 171 167 181 182 179 181 183 180 175 152 190 168 188 172 204 194 199 214 165
169 165 154 171 179 171 171 186 156 158 145 153 191 186 186 170 179 166 170 178 172 179 191 180 184 148 177 181 186 165 180 174 174 175 179 185 175 197 188 162 149 200 187 201 182 211 199
138 151 183 138 186 134 166 179 178 142 203 203 183 169 168 186 191 192 181 177 190 188 172 179 186 178 178 177 166 169 172 174 176 169 179 179 174 183 196 156 194 206 214 215 198 181 197
167 164 183 177 141 209 179 179 149 174 185 154 188 195 187 174 186 178 182 188 172 181 189 181 180 174 174 157 174 170 164 174 182 186 188 187 185 192 183 174 206 198 202 215 169 193 199
181 174 145 175 178 179 175 169 200 171 163 156 191 199 191 161 163 190 173 176 183 177 187 184 174 166 182 183 177 180 180 182 186 189 184 184 191 174 182 178 210 178 197 204 189 163 196
164 166 176 181 173 167 182 163 158 166 179 189 184 182 176 187 190 183 185 183 173 157 186 182 187 142 185 181 185 170 142 182 183 181 186 189 175 178 195 191 186 204 185 199 197 173 173
184 145 183 162 184 171 166 186 187 181 189 173 194 172 192 161 202 189 179 208 186 192 202 157 174 191 184 183 189 187 189 184 158 197 197 191 200 200 187 179 194 186 189 181 196 171 216
180 175 163 181 179 169 159 174 182 171 193 171 194 191 173 179 205 185 206 202 196 182 191 208 188 196 190 198 192 192 194 184 180 184 192 149 169 205 172 180 207 186 194 195 213 171 169
166 170 192 178 182 167 153 152 171 160 185 184 175 194 190 187 193 201 173 192 197 191 206 184 202 182 188 176 197 171 175 200 175 195 193 178 188 184 192 187 190 204 195 192 199 211 194
154 143 156 191 190 189 147 155 190 220 195 164 195 203 210 191 170 210 169 175 197 194 164 179 171 197 172 181 170 176 170 206 173 191 176 198 171 177 197 185 186 186 206 198 205 218 214
148 154 177 179 164 166 149 167 192 195 179 218 173 160 163 207 198 230 216 211 204 192 207 162 192 181 180 182 181 186 156 150 199 185 179 205 193 207 201 203 199 208 197 199 222 214 224
191 193 189 191 192 193 201 218 213 204 201 214 177 209 176 209 159 226 224 206 222 203 175 125 188 202 127 196 189 193 202 172 200 192 186 170 160 209 210 200 195 208 214 199 198 224 209
185 199 197 190 206 203 206 179 209 209 196 207 209 197 218 226 212 212 215 224 226 218 217 184 145 163 176 199 175 203 201 203 200 193 212 212 214 217 219 215 230 223 223 217 207 223 201
208 205 198 219 221 214 217 206 211 207 211 217 177 218 222 218 221 211 211 221 224 217 185 209 202 210 214 216 211 208 171 216 216 214 222 227 221 216 232 233 237 238 226 229 230 235 230
228 227 223 234 223 224 217 216 214 213 219 213 223 216 223 224 226 223 215 223 225 212 198 205 222 223 221 217 217 208 208 214 235 235 232 233 229 234 231 234 240 237 234 239 249 257 249
250 245 235 228 227 226 213 220 229 229 230 226 231 223 225 225 224 225 211 218 216 145 196 225 226 229 229 231 236 248 255 256 249 242 247 251 240 240 239 251 248 248 244 250 251 248 236
262 254 250 250 246 243 243 239 235 237 241 239 231 233 234 228 231 233 238 233 191 224 226 229 233 236 194 257 259 259 259 255 254 254 252 252 255 251 248 261 249 238 243 251 243 250 243
257 269 280 253 263 256 255 253 249 242 239 238 236 241 243 242 243 245 241 241 240 226 240 253 205 274 278 260 269 281 280 264 269 269 261 256 259 319 298 289 288 281 272 271 268 266 265
274 269 266 269 263 255 260 265 241 247 255 250 248 250 258 273 268 265 259 263 252 254 256 131 254 261 270 294 313 340 342 335 329 322 317 310 316 309 299 295 292 291 283 280 278 282 282
291 281 271 274 264 261 261 254 255 255 263 258 262 261 262 261 255 262 269 261 259 254 257 268 369 355 349 341 335 336 334 312 305 301 306 308 323 334 321 317 316 315 315 298 295 280 274
297 294 269 281 286 288 288 258 258 258 262 268 263 254 245 252 254 249 254 252 256 331 357 348 342 333 330 327 320 315 308 303 300 309 310 309 312 314 304 303 331 336 319 308 308 280 266
296 291 291 291 281 282 274 271 275 275 280 270 271 265 265 263 265 263 260 283 347 334 327 322 331 329 327 315 307 305 305 300 307 306 299 307 302 278 310 298 292 288 277 268 260 252 244
304 301 296 293 288 277 281 279 275 283 276 281 282 276 280 274 288 287 293 347 321 326 297 298 306 320 294 284 292 303 306 298 301 295 275 278 263 299 268 268 260 254 251 249 246 240 195
311 310 304 306 302 292 283 282 276 277 275 280 277 278 284 292 268 299 322 325 295 283 284 273 300 306 278 295 303 295 293 284 266 271 265 295 291 265 256 253 247 246 241 240 236 226 230
307 298 299 302 297 298 290 288 286 283 288 281 146 289 283 284 288 327 312 293 295 281 271 282 286 300 304 303 293 288 282 293 262 285 287 285 266 257 241 253 247 237 239 229 228 224 219
303 296 295 304 289 293 289 291 289 290 269 287 278 288 278 290 309 302 284 282 274 250 273 291 289 277 278 275 311 307 287 278 283 279 274 277 261 252 237 240 231 240 243 239 235 232 222
308 295 289 298 293 293 295 297 294 298 297 290 291 291 291 301 336 278 269 278 258 242 291 257 271 267 268 271 270 269 284 275 271 271 278 254 235 243 234 232 236 230 234 232 231 225 225
306 303 304 298 292 292 299 297 302 298 297 296 292 295 304 318 287 267 243 258 259 276 275 275 282 287 291 294 289 272 265 268 253 262 255 245 249 253 240 234 231 229 221 229 227 225 222
318 309 302 300 177 290 291 296 300 296 294 295 292 313 322 300 273 256 247 258 296 279 268 269 267 283 277 269 263 255 255 254 253 248 247 237 238 232 231 231 228 223 228 221 222 221 223

GFSGBSN_2pvu_pres_144.txt.gz
Presure
188 169 192 189 170 188 174 166 181 173 167 158 157 170 141 182 192 178 193 188 178 188 191 113 176 182 167 179 159 174 193 171 182 178 180 167 155 165 174 174 147 179 181 175 186 185 193
213 176 145 189 188 160 184 178 171 150 130 139 160 167 176 147 152 172 184 187 192 185 186 181 175 175 173 178 173 181 184 188 167 183 182 172 187 184 179 180 178 184 201 189 188 164 192
183 170 198 181 128 186 176 176 169 166 140 142 152 196 186 165 185 190 156 199 140 183 193 191 187 179 177 177 165 173 177 175 181 182 160 181 169 177 179 172 177 182 188 186 203 196 189
153 132 165 140 172 189 163 144 152 175 141 177 174 192 158 194 174 189 181 189 180 190 181 184 174 183 187 183 184 172 187 180 181 186 170 165 176 176 164 178 182 190 190 192 189 180 180
160 150 166 160 180 196 194 184 183 159 179 170 144 172 195 173 193 175 173 187 193 195 153 183 182 172 174 180 186 168 186 181 190 178 179 183 183 185 179 183 180 186 185 189 191 201 181
185 160 173 198 169 194 152 203 161 184 168 165 169 174 179 161 164 150 153 186 175 179 187 198 185 179 180 186 152 178 183 184 174 188 163 181 185 185 185 180 186 186 188 196 195 197 193
132 144 203 181 148 135 180 172 162 189 181 198 192 171 202 142 161 156 191 171 170 215 147 185 202 201 169 190 162 187 180 191 198 197 184 194 186 185 187 193 190 183 178 196 182 180 195
149 179 162 191 146 188 161 151 170 167 183 181 190 185 181 157 150 184 176 192 189 171 187 161 195 199 204 205 197 192 179 193 181 186 192 193 197 197 196 197 195 180 201 202 183 204 197
160 184 157 188 154 166 174 150 184 163 183 183 178 182 171 178 175 184 189 176 199 191 186 182 209 169 189 180 157 191 198 185 199 188 192 195 187 191 191 192 211 201 189 183 191 191 195
191 159 174 180 160 164 173 161 182 186 177 170 168 189 175 177 161 181 194 188 209 189 212 146 216 191 216 208 178 189 192 196 196 183 189 203 186 180 182 175 184 192 201 176 189 205 211
170 165 146 168 150 187 194 151 168 179 156 141 158 180 168 151 191 171 154 150 191 215 196 204 82 177 158 224 213 203 78 191 184 184 203 196 187 188 189 170 195 166 187 184 174 190 198
168 189 181 178 176 183 166 171 179 178 172 179 180 172 166 174 177 194 206 204 211 192 212 197 170 208 205 223 211 210 198 149 190 191 192 186 194 195 195 195 161 195 203 209 182 197 219
188 205 190 187 195 183 184 185 187 195 197 202 205 183 204 195 203 162 215 181 176 186 141 215 204 227 229 210 223 214 213 202 200 193 199 203 182 192 159 194 197 209 187 211 218 213 220
209 220 218 210 215 229 220 201 170 210 208 218 200 211 213 209 205 224 224 204 220 205 191 220 225 183 235 231 225 217 221 222 205 207 197 197 206 203 209 212 203 210 220 220 218 218 237
235 224 231 221 214 218 207 222 217 212 207 219 219 221 222 208 222 205 221 222 217 203 216 220 198 228 225 225 224 219 221 226 226 215 217 219 204 212 217 224 223 221 218 215 255 246 248
263 249 247 240 230 233 225 233 220 218 221 227 217 223 219 226 215 221 227 227 206 207 218 93 191 226 221 220 214 227 223 225 215 225 228 229 228 225 226 248 269 270 263 255 249 247 243
266 264 257 248 243 242 245 244 244 245 237 227 239 226 226 228 227 231 224 221 219 225 142 241 234 232 92 89 192 191 239 237 241 245 244 264 275 269 267 264 262 259 254 254 250 250 250
281 274 275 263 254 247 248 250 251 250 244 249 252 249 245 243 245 237 232 232 237 232 119 242 235 239 237 241 265 268 276 269 258 266 263 268 258 245 258 257 257 266 255 260 261 258 254
307 291 285 282 269 265 267 255 256 246 248 249 255 253 251 251 247 242 244 246 246 243 241 210 244 223 218 263 260 280 276 258 261 260 261 263 280 296 319 301 287 289 297 303 326 313 305
306 304 290 282 281 274 274 270 273 266 261 253 263 257 258 263 255 247 269 264 270 252 253 204 248 255 253 263 262 269 286 321 369 350 335 340 339 333 332 325 322 319 316 320 321 317 312
311 300 295 291 281 278 262 264 273 278 275 269 268 261 257 258 267 251 255 250 256 248 253 154 159 259 262 266 301 386 375 356 342 330 318 325 325 320 311 307 317 325 316 309 310 326 321
317 303 304 297 291 272 279 272 269 268 270 274 273 276 268 267 267 254 250 255 252 261 241 261 257 271 313 374 346 326 327 327 321 316 308 307 310 309 309 311 307 332 304 300 292 307 326
307 308 307 300 296 297 286 275 274 289 280 270 292 275 277 293 296 283 268 271 267 251 266 278 287 341 358 332 309 309 322 315 301 309 310 307 300 301 292 288 309 274 275 284 275 270 271
332 327 305 300 296 300 285 275 281 283 288 289 282 285 282 283 280 272 277 275 275 271 272 281 359 293 287 294 317 307 304 296 300 306 298 284 297 291 271 298 267 264 261 263 255 256 251
323 330 335 329 318 310 297 292 293 289 282 286 283 284 279 284 278 271 198 280 265 277 281 338 278 271 275 287 314 295 291 289 284 287 295 276 276 268 298 271 260 259 254 245 245 244 243
342 337 317 319 309 304 305 290 303 293 289 291 290 289 287 282 173 266 283 286 274 286 320 288 266 251 262 323 310 298 289 280 284 276 268 280 294 295 263 255 247 255 240 243 228 233 231
338 327 310 311 304 305 302 300 297 299 298 305 296 298 290 186 270 287 276 285 291 302 295 263 265 252 262 287 287 290 280 275 272 280 278 298 291 262 255 249 225 247 230 231 239 240 231
337 326 312 306 303 303 310 305 299 302 299 294 296 291 284 280 281 287 288 289 294 262 254 250 258 267 276 265 267 274 309 304 283 276 291 278 271 246 244 237 229 240 229 232 231 232 228
329 330 312 308 321 305 295 292 291 301 292 295 296 296 295 292 281 285 299 294 262 267 260 270 278 274 297 299 306 287 273 278 290 267 266 268 247 237 244 237 233 227 224 231 227 226 226

GFSGBSN_2pvu_pres_147.txt.gz
Presure
134 148 187 198 168 163 170 161 145 188 176 169 164 173 155 169 160 183 182 178 150 182 188 151 207 169 191 188 181 133 156 174 183 173 172 176 168 174 179 175 174 177 167 171 168 174 186
195 172 165 167 173 157 177 164 178 161 133 174 172 179 169 169 151 150 171 177 134 152 171 154 183 174 189 150 176 183 193 182 179 178 175 177 178 175 170 183 182 189 190 194 187 183 182
135 134 146 162 194 147 161 133 178 178 145 177 173 161 181 175 174 163 171 143 184 170 153 191 174 181 181 167 201 184 186 184 188 177 191 183 176 181 194 178 186 181 180 151 180 160 180
166 166 156 187 179 141 185 158 172 163 200 194 164 173 178 171 176 171 158 175 171 175 174 178 172 154 177 187 195 197 189 186 177 178 186 187 180 182 183 184 190 183 176 171 184 184 191
183 179 200 175 191 205 178 171 161 160 137 169 162 141 160 142 186 186 158 186 165 165 178 170 187 165 166 180 170 154 198 202 179 187 184 183 181 154 178 180 180 182 190 188 187 186 188
201 180 134 193 143 134 158 183 131 197 161 173 154 165 172 192 147 185 170 169 157 160 167 176 156 185 169 175 179 189 193 177 188 201 201 194 187 184 190 185 189 190 188 186 192 194 192
160 168 167 141 140 181 153 126 145 147 196 137 162 189 150 161 149 232 147 159 152 197 172 206 168 162 150 183 188 168 196 160 172 166 163 211 142 193 203 206 181 195 187 185 200 194 204
158 183 173 160 139 191 175 184 138 167 163 181 174 185 162 181 189 180 182 165 167 206 170 171 188 162 167 162 185 178 199 218 191 211 207 201 166 174 180 182 197 186 196 194 197 202 197
163 163 179 168 173 171 173 182 172 167 187 162 176 181 159 175 158 162 162 192 155 158 182 162 167 178 167 158 171 195 199 203 179 206 200 214 203 197 188 193 190 197 193 188 200 196 191
190 192 182 157 182 169 174 168 168 178 192 155 162 178 152 166 137 178 162 175 191 164 197 180 177 185 192 169 147 192 200 193 211 181 211 181 208 205 195 186 188 193 195 186 178 201 201
177 143 161 184 177 185 145 159 183 177 162 166 164 192 176 193 179 168 180 139 179 149 181 192 155 101 150 144 183 199 211 170 200 198 195 210 198 214 206 203 192 189 188 192 191 195 203
188 185 156 183 171 163 188 171 148 187 179 160 161 154 162 165 170 167 177 190 138 165 193 158 160 190 175 168 202 198 220 196 207 208 199 222 215 211 209 204 203 205 196 192 192 197 199
196 197 166 199 195 191 165 184 168 159 187 164 182 162 172 183 169 194 161 159 181 183 187 184 171 200 205 196 198 190 220 224 206 214 215 221 218 203 217 211 208 207 205 199 199 200 198
210 205 206 168 207 199 203 197 196 191 200 197 203 196 203 205 194 208 202 195 199 201 200 204 205 210 212 222 220 215 221 220 222 215 219 225 215 225 221 215 221 210 166 218 214 213 217
233 231 240 223 223 219 217 217 232 217 216 203 211 235 216 197 205 207 210 223 212 191 206 237 218 241 227 234 217 227 225 226 215 219 224 228 228 223 220 222 226 208 213 230 232 228 232
268 276 256 245 243 246 247 233 233 242 234 224 224 218 216 240 217 211 228 216 214 172 220 220 225 217 222 218 223 224 227 220 225 223 228 231 242 233 222 226 227 218 222 238 237 244 235
300 279 274 262 263 255 252 243 245 243 236 239 236 235 236 240 230 241 225 225 222 228 227 230 228 227 227 224 230 235 235 138 185 230 232 247 248 243 246 261 271 270 269 264 271 271 272
292 294 289 277 289 279 261 258 254 253 244 252 248 243 236 252 240 238 227 234 222 231 112 233 239 232 230 241 235 239 237 239 247 239 252 252 277 272 260 265 266 263 272 274 267 264 263
320 318 304 302 301 282 281 278 264 266 252 253 257 247 257 257 249 243 233 242 242 233 242 243 237 114 111 241 146 243 254 275 278 256 263 254 258 268 264 259 263 267 269 279 286 305 300
328 322 319 311 306 302 302 298 270 279 270 266 263 267 253 258 252 247 247 247 247 250 252 242 241 244 237 257 205 260 261 261 261 256 261 271 277 319 348 338 350 338 331 326 320 321 315
339 334 316 320 298 306 306 305 297 289 290 285 286 283 263 264 265 259 256 255 259 253 263 255 267 259 259 267 180 258 243 260 264 273 291 356 361 354 346 340 323 317 312 303 303 313 319
344 347 344 325 321 325 291 288 297 307 299 308 301 304 288 273 270 272 272 270 268 265 255 260 276 260 266 148 144 144 260 283 294 345 319 331 334 327 314 306 305 299 291 302 309 309 313
349 354 360 351 337 337 312 303 301 301 294 290 291 290 272 278 275 269 265 257 256 265 278 280 277 276 174 274 284 277 299 340 322 312 312 317 308 304 303 299 300 287 295 295 294 295 293
339 338 339 344 338 324 321 316 302 301 307 292 284 281 281 287 266 268 270 276 281 257 276 274 271 206 270 291 284 307 301 289 296 305 300 298 299 308 294 299 292 277 279 277 270 263 262
331 326 334 335 338 323 317 314 307 299 294 294 291 294 291 279 283 288 280 277 284 283 270 273 270 279 292 288 298 277 271 267 297 290 287 285 301 294 295 286 279 267 269 260 255 248 250
327 331 328 331 330 329 324 301 307 304 301 296 292 292 287 280 276 273 272 278 278 281 271 269 279 280 279 292 268 267 281 315 297 271 294 288 296 295 286 284 262 262 259 254 242 235 242
327 330 327 325 320 320 327 330 314 300 299 290 293 288 286 291 277 269 275 282 281 278 273 276 279 291 310 274 259 257 299 295 300 291 290 290 271 267 294 263 257 257 245 241 241 239 224
322 322 325 326 321 313 320 327 327 321 315 308 305 291 285 286 272 279 284 282 273 278 271 271 304 289 275 269 261 252 283 284 284 282 272 286 265 292 270 250 253 248 234 233 225 232 234
315 323 324 336 340 321 321 315 315 317 315 299 296 295 297 288 288 290 288 280 286 281 275 293 274 262 257 260 276 269 268 274 298 287 287 297 292 266 260 258 244 232 236 226 227 226 228